Weather History for KHBG - December, 2012

Change the Weather History Date:

Tuesday, December 4, 2012

  Actual Average Record
Temperature  
Mean Temperature 70 °F 52 °F  
Max Temperature 77 °F 64 °F 82 °F (1978)
Min Temperature 62 °F 41 °F 24 °F (1979)
Degree Days  
Heating Degree Days 0 13  
Month to date heating degree days 7 51  
Since 1 July heating degree days 392 379  
Cooling Degree Days 5 1  
Month to date cooling degree days 5 4  
Year to date cooling degree days 2719 2394  
Growing Degree Days 18 (Base 50)    
Moisture  
Dew Point 63 °F    
Average Humidity 79    
Maximum Humidity 93    
Minimum Humidity 64    
Precipitation  
Precipitation 0.03 in 0.16 in 3.89 in (1953)
Month to date precipitation 0.03 0.62  
Year to date precipitation 60.87 54.88  
Sea Level Pressure  
Sea Level Pressure 30.20 in    
Wind  
Wind Speed 4 mph (SSE)    
Max Wind Speed 15 mph    
Max Gust Speed 20 mph    
Visibility 7 miles    
Events Rain    
T = Trace of Precipitation, MM = Missing Value Source: NWS Daily Summary

Daily Weather History Graph

Daily Weather History Graph

Search for Another Location

Airport or City:

Trip Planner

Search our weather history database for the weather conditions in past years. The results will help you decide how hot, cold, wet, or windy it might be!

Date:

Astronomy

Dec. 04, 2012 Rise Set
Actual Time 6:40 AM CST 4:54 PM CST
Civil Twilight 6:14 AM CST 5:20 PM CST
Nautical Twilight 5:44 AM CST 5:50 PM CST
Astronomical Twilight 5:14 AM CST 6:20 PM CST
Moon 10:26 PM CST (12/4) 10:47 AM CST (12/4)
Length of Visible Light 11h 06m
Length of Day
10h 13m
Waning Gibbous, 69% of the Moon is Illuminated
Dec 4
Waning Gibbous
Dec 6
Last Quarter
Dec 13
New
Dec 19
First Quarter
Dec 28
Full

Hourly Weather History & Observations

Time (CST) Temp. Dew Point Humidity Pressure Visibility Wind Dir Wind Speed Gust Speed Precip Events Conditions
12:39 AM 64.4 °F 62.6 °F 94% 30.20 in 9.0 mi SSE 3.5 mph - N/A   Mostly Cloudy
12:53 AM 64.9 °F 63.0 °F 93% 30.19 in 9.0 mi SE 3.5 mph - N/A   Overcast
1:53 AM 66.9 °F 64.0 °F 90% 30.19 in 7.0 mi SSE 8.1 mph - N/A   Overcast
2:53 AM 66.9 °F 64.0 °F 90% 30.18 in 10.0 mi SSE 8.1 mph - N/A   Overcast
3:53 AM 66.9 °F 64.0 °F 90% 30.18 in 10.0 mi SSE 4.6 mph - N/A   Overcast
5:53 AM 66.0 °F 64.0 °F 93% 30.18 in 10.0 mi SE 5.8 mph - N/A   Overcast
6:12 AM 66.2 °F 64.4 °F 94% 30.20 in 8.0 mi Calm Calm - 0.00 in Rain Light Rain
6:20 AM 66.2 °F 64.4 °F 94% 30.21 in 9.0 mi Calm Calm - 0.00 in Rain Light Rain
6:53 AM 66.0 °F 64.0 °F 93% 30.22 in 6.0 mi Calm Calm - 0.00 in   Overcast
7:53 AM 66.0 °F 64.0 °F 93% 30.25 in 5.0 mi Calm Calm - N/A   Overcast
8:35 AM 66.2 °F 64.4 °F 94% 30.26 in 4.0 mi Calm Calm - 0.01 in Rain Light Rain
8:53 AM 68.0 °F 64.9 °F 90% 30.25 in 5.0 mi SE 4.6 mph - 0.02 in Rain Light Rain
9:07 AM 68.0 °F 66.2 °F 94% 30.26 in 7.0 mi SE 3.5 mph - 0.00 in Rain Light Rain
9:17 AM 69.8 °F 66.2 °F 88% 30.25 in 7.0 mi SE 4.6 mph - 0.00 in   Mostly Cloudy
9:49 AM 71.6 °F 66.2 °F 83% 30.25 in 10.0 mi SE 5.8 mph - 0.00 in   Mostly Cloudy
9:53 AM 71.1 °F 66.9 °F 87% 30.25 in 10.0 mi SSE 5.8 mph - 0.00 in   Mostly Cloudy
10:01 AM 71.6 °F 66.2 °F 83% 30.25 in 10.0 mi SSE 6.9 mph - N/A   Scattered Clouds
10:53 AM 75.0 °F 64.0 °F 69% 30.23 in 10.0 mi South 12.7 mph - N/A   Mostly Cloudy
11:53 AM 75.0 °F 62.1 °F 64% 30.22 in 10.0 mi South 11.5 mph 17.3 mph N/A   Overcast
12:53 PM 72.0 °F 64.0 °F 76% 30.20 in 10.0 mi SSW 3.5 mph - 0.00 in   Mostly Cloudy
1:53 PM 75.0 °F 63.0 °F 66% 30.17 in 10.0 mi SSE 8.1 mph - N/A   Partly Cloudy
2:53 PM 73.0 °F 63.0 °F 71% 30.16 in 10.0 mi South 6.9 mph - N/A   Scattered Clouds
3:53 PM 71.1 °F 62.1 °F 73% 30.16 in 10.0 mi SSE 5.8 mph - N/A   Scattered Clouds
4:53 PM 69.1 °F 63.0 °F 81% 30.15 in 10.0 mi SE 3.5 mph - N/A   Clear
5:53 PM 69.1 °F 63.0 °F 81% 30.17 in 10.0 mi Calm Calm - 0.00 in Rain Light Rain
6:53 PM 68.0 °F 63.0 °F 84% 30.18 in 10.0 mi NNE 5.8 mph - 0.01 in Rain Light Rain
7:53 PM 66.0 °F 63.0 °F 90% 30.19 in 10.0 mi Calm Calm - 0.00 in   Clear
8:53 PM 64.0 °F 63.0 °F 96% 30.19 in 8.0 mi Calm Calm - N/A   Mostly Cloudy
9:53 PM 64.9 °F 63.0 °F 93% 30.18 in 6.0 mi NNE 3.5 mph - 0.00 in   Partly Cloudy
10:10 PM 62.6 °F 62.6 °F 100% 30.17 in 1.8 mi Calm Calm - N/A   Clear
10:17 PM 62.6 °F 62.6 °F 100% 30.17 in 0.8 mi South 3.5 mph - N/A   Mist
10:23 PM 62.6 °F 62.6 °F 100% 30.17 in 1.2 mi Calm Calm - N/A   Partly Cloudy
10:28 PM 64.4 °F 62.6 °F 94% 30.17 in 3.0 mi Calm Calm - N/A   Partly Cloudy
10:53 PM 62.1 °F 61.0 °F 96% 30.17 in 2.0 mi Calm Calm - N/A   Partly Cloudy
11:04 PM 62.6 °F 60.8 °F 94% 30.17 in 1.5 mi Calm Calm - N/A   Partly Cloudy
11:20 PM 62.6 °F 60.8 °F 94% 30.17 in 3.0 mi Calm Calm - N/A   Mostly Cloudy
11:31 PM 62.6 °F 60.8 °F 94% 30.17 in 2.5 mi Calm Calm - N/A   Overcast
11:34 PM 62.6 °F 60.8 °F 94% 30.17 in 3.0 mi Calm Calm - N/A   Overcast
11:53 PM 63.0 °F 62.1 °F 97% 30.16 in 4.0 mi Calm Calm - 0.00 in Rain Light Rain